Location: Bermeries
(50.2863°N, 3.7551°E)
Time: 03:35:31
(UTC+00:00)

SL-14 R/B - Pass Details

Date: 23 May 2024
Orbit: 508 x 541 km, 82.4° (Epoch: 17 June)

Event Time Altitude Azimuth Distance (km) Brightness Sun altitude
Exits shadow 01:01:27 30° 239° (WSW) 962 4.1 -16.9°
Maximum altitude 01:02:47 41° 285° (WNW) 770 4.0 -16.8°
Drops below altitude 10° 01:06:28 10° 357° (N) 1,759 6.9 -16.6°
Sets 01:08:41 0° 5° (N) 2,647 8.3 -16.5°
